We konden geen weer-waarchuwingen ophalen. Ga rechtstreeks naar de Meteoalarm site : www.meteoalarm.eu en controleer daar .



Onweer radar Meer informatie blitzortung!


Regen radar Meer informatie rain snow radar


Bezoek onze andere website:

Template documentation
and downloads

And another site



15 daagse weersverwachting Göteborg (SE)

  • Overzicht
  • Per uur
  • 15 dagen
  • Extra
  • Vergelijk
  • Kaarten
  • Dagkaart
  • Meer »
  • Info
  • Statistieken
  • Directe link
    Temp 6h Neerslag Wind  
 05:44     20:50    Daglengte: 15:06 Vandaag
14:00
22°
 
4
20:00
20°
 
2
 05:46     20:47    Daglengte: 15:01 Morgen
02:00
17°
 
1
08:00
18°
 
1
14:00
24°
 
2
20:00
21°
 
2
warningclass
 05:48     20:45    Daglengte: 14:57 Vrijdag 19 Aug
02:00
18°
 
1
08:00
18°
 
1
14:00
22°
3.8 mm
2
20:00
19°
14.6 mm
2
warningclass
 05:50     20:42    Daglengte: 14:52 Zaterdag 20 Aug
02:00
19°
23.8 mm
1
warningclass
08:00
18°
18.7 mm
3
Locatie info
Region: Västra Götalands län
Latitude: 57.7007°N
Longitude: 11.9682°E
10 masl
Postcode: 411 36
Temp/Neerslag /Baro Onweer/Dauwpunt
    Temp Baro 1h Neerslag Dauwpunt Wind UV Bewolking  
 05:44     20:50    Daglengte: 15:06 Vandaag
13:00
22°
1012.5 hPa   15.0°
3
Windvlaag: 5.8 m/s
15%
14:00
22°
1012.9 hPa   15.7°
4
Windvlaag: 5.1 m/s
28%
15:00
22°
1012.8 hPa   15.9°
4
Windvlaag: 5.1 m/s
45%
16:00
22°
1012.8 hPa   15.6°
3
Windvlaag: 4.1 m/s
54%
17:00
21°
1012.9 hPa   15.5°
3
Windvlaag: 4.5 m/s
63%
18:00
21°
1012.8 hPa   15.6°
3
Windvlaag: 5 m/s
68%
19:00
21°
1013.1 hPa   16.5°
3
Windvlaag: 5.2 m/s
66%
20:00
20°
1013.3 hPa   17.4°
2
Windvlaag: 5 m/s
69%
21:00
19°
1013.4 hPa   17.6°
2
Windvlaag: 4.2 m/s
55%
22:00
19°
1013.8 hPa   17.5°
1
Windvlaag: 3.8 m/s
62%
23:00
18°
1014.1 hPa   17.5°
1
Windvlaag: 1.3 m/s
73%
 05:46     20:47    Daglengte: 15:01 Morgen
00:00
18°
1014.5 hPa   17.3°
1
Windvlaag: 0.6 m/s
79%
01:00
18°
1014.3 hPa   17.0°
1
Windvlaag: 1.1 m/s
80%
02:00
17°
1014.5 hPa   16.8°
1
Windvlaag: 1.1 m/s
76%
03:00
17°
1014.5 hPa   16.7°
1
Windvlaag: 1.5 m/s
68%
04:00
17°
1014.5 hPa   16.4°
1
Windvlaag: 1.9 m/s
76%
05:00
17°
1014.4 hPa   16.4°
1
Windvlaag: 1.8 m/s
79%
06:00
17°
1014.5 hPa   16.5°
1
Windvlaag: 1.4 m/s
78%
07:00
17°
1014.8 hPa   16.4°
1
Windvlaag: 1.1 m/s
63%
08:00
18°
1014.9 hPa
19%
16.2°
1
Windvlaag: 1 m/s
75%
09:00
19°
1014.9 hPa
20%
15.8°
1
Windvlaag: 1.6 m/s
71%
10:00
20°
1014.9 hPa
20%
14.2°
2
Windvlaag: 1.3 m/s
72%
11:00
21°
1014.9 hPa
18%
12.9°
2
Windvlaag: -0.2 m/s
73%
12:00
22°
1014.7 hPa   12.7°
2
Windvlaag: -1.5 m/s
52%
13:00
23°
1014.5 hPa   12.5°
2
Windvlaag: -1.7 m/s
76%
14:00
24°
1014.0 hPa
15%
11.9°
2
Windvlaag: -1.6 m/s
73%
15:00
25°
1013.5 hPa
16%
12.0°
2
Windvlaag: -1.6 m/s
54%
16:00
25°
1013.1 hPa
30%
11.9°
3
Windvlaag: -1.9 m/s
51%
17:00
24°
1012.9 hPa
82%
12.0°
3
Windvlaag: -2.1 m/s
46%
18:00
23°
1012.9 hPa
82%
12.8°
2
Windvlaag: -1.1 m/s
29%
19:00
23°
1012.7 hPa
82%
12.2°
2
Windvlaag: -0.4 m/s
58% warningclass
20:00
21°
1012.7 hPa
82%
12.4°
2
Windvlaag: -1.1 m/s
38% warningclass
21:00
20°
1012.9 hPa
82%
13.8°
1
Windvlaag: -0.8 m/s
34% warningclass
22:00
20°
1012.8 hPa
82%
14.8°
1
Windvlaag: -0.3 m/s
21% warningclass
23:00
19°
1012.7 hPa
82%
15.7°
1
Windvlaag: 0.4 m/s
26% warningclass
 05:48     20:45    Daglengte: 14:57 Vrijdag 19 Aug
00:00
19°
1012.7 hPa
82%
16.3°
2
Windvlaag: 1.6 m/s
18%
01:00
18°
1012.7 hPa
33%
15.7°
2
Windvlaag: 2 m/s
26%
02:00
18°
1012.6 hPa
16%
15.7°
1
Windvlaag: 2.1 m/s
31%
03:00
18°
1012.5 hPa
17%
15.4°
2
Windvlaag: 2.4 m/s
32%
04:00
18°
1012.5 hPa
14%
15.1°
2
Windvlaag: 1.7 m/s
31%
05:00
17°
1011.4 hPa
21%
16.6°
1
Windvlaag: 1.5 m/s
17%
06:00
17°
1011.5 hPa
21%
16.5°
1
Windvlaag: 1 m/s
20%
07:00
17°
1011.9 hPa
21%
16.6°
1
Windvlaag: 0.6 m/s
40%
08:00
18°
1011.9 hPa
21%
17.9°
1
Windvlaag: 0.1 m/s
67%
09:00
20°
1011.9 hPa
21%
18.6°
1
Windvlaag: 0 m/s
78%
10:00
21°
1011.9 hPa
22%
19.5°
1
Windvlaag: 0 m/s
98%
11:00
22°
1011.8 hPa
90%
20.2°
1
Windvlaag: 0.2 m/s
94%
12:00
22°
1011.7 hPa
100%
21.1°
1
Windvlaag: 0.4 m/s
93%
13:00
23°
1011.6 hPa
100%
20.1°
1
Windvlaag: 1.2 m/s
95%
14:00
22°
1011.3 hPa 3.8 mm
97%
17.8°
2
Windvlaag: 1 m/s
92%
15:00
23°
1011.2 hPa
93%
17.7°
2
Windvlaag: 0.8 m/s
94%
16:00
22°
1011.0 hPa 2.6 mm
100%
17.2°
2
Windvlaag: 0 m/s
99%
17:00
22°
1010.6 hPa 2.5 mm
100%
17.0°
2
Windvlaag: -2.6 m/s
98%
18:00
21°
1010.1 hPa 3.5 mm
100%
18.2°
2
Windvlaag: -2.4 m/s
100%
19:00
20°
1010.4 hPa 3.1 mm
100%
17.9°
3
Windvlaag: 0.2 m/s
100%
20:00
19°
1010.4 hPa 3.0 mm
100%
17.0°
2
Windvlaag: -0.4 m/s
98% warningclass
21:00
19°
1010.2 hPa 2.9 mm
100%
16.2°
2
Windvlaag: -2.2 m/s
93% warningclass
22:00
18°
1010.1 hPa 3.7 mm
100%
14.4°
2
Windvlaag: -1.9 m/s
89% warningclass
23:00
18°
1010.1 hPa 4.0 mm
100%
14.0°
1
Windvlaag: -1.9 m/s
89% warningclass
 05:50     20:42    Daglengte: 14:52 Zaterdag 20 Aug
00:00
19°
1010.0 hPa 4.9 mm
100%
15.1°
1
Windvlaag: 6.9 m/s
89% warningclass
01:00
19°
1009.8 hPa 4.4 mm
100%
15.9°
1
Windvlaag: 7.5 m/s
97% warningclass
02:00
19°
1009.3 hPa 4.0 mm
100%
17.3°
1
Windvlaag: 7.6 m/s
98% warningclass
03:00
19°
1008.9 hPa 3.8 mm
100%
17.2°
2
Windvlaag: 5.6 m/s
100%
04:00
18°
1008.8 hPa 3.7 mm
100%
17.3°
2
Windvlaag: 5.7 m/s
99%
05:00
18°
1008.6 hPa 3.9 mm
100%
15.5°
2
Windvlaag: 6.3 m/s
86%
06:00
18°
1008.4 hPa 3.7 mm
100%
13.9°
2
Windvlaag: 6.7 m/s
80%
07:00
18°
1008.5 hPa
96%
12.6°
2
Windvlaag: 6.3 m/s
82%
08:00
18°
1008.6 hPa 3.5 mm
94%
11.5°
3
Windvlaag: 6.9 m/s
85%
09:00
18°
1008.7 hPa 3.5 mm
98%
10.8°
3
Windvlaag: 5.7 m/s
83%
10:00
18°
1008.8 hPa
91%
10.8°
3
Windvlaag: 6.4 m/s
85%
11:00
19°
1008.8 hPa
42%
11.1°
3
Windvlaag: 6.8 m/s
80%
12:00
20°
1008.8 hPa
34%
11.2°
4
Windvlaag: 6.4 m/s
88%
Temp/Neerslag /Baro Onweer/Dauwpunt
    Temp Baro Neerslag Dauwpunt Wind Bewolking  
 05:44     20:50    Daglengte: 15:06 Vandaag
14:00
22°
1012.9 hPa   15.7°
4
28%
17:00
21°
1012.9 hPa   15.5°
3
63%
20:00
20°
1013.3 hPa   17.4°
2
69%
23:00
18°
1014.1 hPa   17.5°
1
73%
 05:46     20:47    Daglengte: 15:01 Morgen
02:00
17°
1014.5 hPa   16.8°
1
76%
05:00
17°
1014.4 hPa   16.4°
1
79%
08:00
18°
1014.9 hPa   16.2°
1
75%
11:00
21°
1014.9 hPa   12.9°
2
73%
14:00
24°
1014.0 hPa   11.9°
2
73%
17:00
24°
1012.9 hPa   12.0°
3
46%
20:00
21°
1012.7 hPa   12.4°
2
38% warningclass
23:00
19°
1012.7 hPa   15.7°
1
26% warningclass
 05:48     20:45    Daglengte: 14:57 Vrijdag 19 Aug
02:00
18°
1012.6 hPa   15.7°
1
31%
05:00
17°
1011.4 hPa   16.6°
1
17%
08:00
18°
1011.9 hPa   17.9°
1
67%
11:00
22°
1011.8 hPa   20.2°
1
94%
14:00
22°
1011.3 hPa 3.8 mm 17.8°
2
92%
17:00
22°
1010.6 hPa 5.1 mm 17.0°
2
98%
20:00
19°
1010.4 hPa 9.6 mm 17.0°
2
98% warningclass
23:00
18°
1010.1 hPa 10.5 mm 14.0°
1
89% warningclass
 05:50     20:42    Daglengte: 14:52 Zaterdag 20 Aug
02:00
19°
1009.3 hPa 13.3 mm 17.3°
1
98% warningclass
05:00
18°
1008.6 hPa 11.4 mm 15.5°
2
86%
08:00
18°
1008.6 hPa 7.2 mm 11.5°
3
85%
11:00
19°
1008.8 hPa 3.5 mm 11.1°
3
80%
14:00
19°
1009.6 hPa 10.4 mm 11.0°
5
85%
17:00
18°
1012.9 hPa 10.7 mm 10.5°
4
1%
20:00
16°
1013.1 hPa 10.7 mm 11.9°
3
1%
23:00
15°
1012.7 hPa 10.7 mm 12.6°
3
1%
 05:52     20:39    Daglengte: 14:47 Zondag 21 Aug
02:00
15°
1012.9 hPa 10.7 mm 12.8°
3
1%
05:00
15°
1012.0 hPa 10.7 mm 12.8°
4
0%
08:00
17°
1011.5 hPa 10.9 mm 14.2°
5
0%
11:00
19°
1011.9 hPa 11.2 mm 13.2°
5
0%
14:00
20°
1011.6 hPa 11.4 mm 12.5°
5
0%
17:00
20°
1010.7 hPa 11.7 mm 11.5°
4
0%
20:00
17°
1011.2 hPa 11.8 mm 13.3°
3
1%
23:00
15°
1010.7 hPa 11.8 mm 12.0°
1
1%
 05:54     20:37    Daglengte: 14:43 Maandag 22 Aug
02:00
15°
1010.6 hPa 12.1 mm 12.6°
4
1%
05:00
14°
1010.8 hPa 12.2 mm 11.5°
4
0%
08:00
16°
1011.7 hPa 12.4 mm 11.3°
5
0%
11:00
17°
1012.4 hPa 13.5 mm 12.0°
6
0%
14:00
17°
1013.5 hPa 15.7 mm 12.7°
5
0%
17:00
18°
1014.4 hPa 16.3 mm 9.6°
5
0%
20:00
16°
1015.4 hPa 16.3 mm 9.9°
4
0%
23:00
14°
1017.0 hPa 16.3 mm 10.8°
3
0%
 05:56     20:34    Daglengte: 14:38 Dinsdag 23 Aug
02:00
13°
1018.5 hPa 16.3 mm 10.7°
3
0%
05:00
13°
1019.8 hPa 16.3 mm 10.5°
2
1%
08:00
15°
1021.4 hPa 16.3 mm 10.4°
1
0%
11:00
19°
1022.6 hPa 16.3 mm 8.2°
2
1%
14:00
21°
1022.9 hPa 16.3 mm 6.6°
1
1%
17:00
21°
1022.6 hPa 16.3 mm 7.2°
2
1%
20:00
17°
1022.6 hPa 16.3 mm 10.3°
1
1%
23:00
15°
1023.0 hPa 16.3 mm 9.1°
2
1%
 05:58     20:31    Daglengte: 14:33 Woensdag 24 Aug
02:00
13°
1023.5 hPa 16.3 mm 8.7°
4
1%
05:00
13°
1023.2 hPa 16.3 mm 9.5°
5
0%
08:00
15°
1022.6 hPa 16.3 mm 9.0°
5
0%
11:00
21°
1021.8 hPa   8.5°
5
1%
14:00
25°
1020.5 hPa 32.7 mm 5.4°
3
1%
20:00
19°
1019.6 hPa 32.7 mm 10.9°
1
1%
 06:00     20:29    Daglengte: 14:29 Donderdag 25 Aug
02:00
16°
1019.7 hPa 32.7 mm 15.1°
3
1%
08:00
18°
1019.8 hPa 32.7 mm 15.0°
3
0%
14:00
25°
1018.4 hPa 32.7 mm 12.9°
2
1%
20:00
20°
1018.5 hPa 32.7 mm 15.9°
2
1%
 06:03     20:26    Daglengte: 14:23 Vrijdag 26 Aug
02:00
20°
1018.0 hPa 32.7 mm 15.0°
2
1%
08:00
20°
1018.8 hPa 32.8 mm 16.1°
1
1%
14:00
24°
1020.5 hPa 32.8 mm 14.9°
4
1%
20:00
19°
1021.5 hPa 32.8 mm 16.1°
1
0%
 06:05     20:23    Daglengte: 14:18 Zaterdag 27 Aug
02:00
17°
1023.0 hPa 32.8 mm 14.9°
2
0%
08:00
16°
1022.1 hPa 0.3 mm 12.5°
1
46%
14:00
22°
1022.1 hPa 0.2 mm 12.3°
1
50%
20:00
18°
1021.9 hPa 0.2 mm 13.2°
1
49%
 06:07     20:21    Daglengte: 14:14 Zondag 28 Aug
02:00
16°
1022.8 hPa 0.6 mm 12.4°
1
51%
08:00
16°
1023.0 hPa 0.9 mm 12.1°
1
56%
14:00
21°
1023.0 hPa 0.2 mm 12.1°
1
52%
20:00
18°
1022.5 hPa 0.3 mm 13.3°
1
38%
 06:09     20:18    Daglengte: 14:09 Maandag 29 Aug
02:00
16°
1023.2 hPa 0.3 mm 12.3°
1
40%
08:00
16°
1023.0 hPa 0.2 mm 12.1°
1
34%
14:00
21°
1022.5 hPa 0.1 mm 12.6°
1
38%
20:00
18°
1021.6 hPa 0.2 mm 12.9°
1
39%
 06:11     20:15    Daglengte: 14:04 Dinsdag 30 Aug
02:00
15°
1021.8 hPa 0.1 mm 11.9°
2
42%
08:00
16°
1021.4 hPa 0.3 mm 12.1°
2
42%
14:00
21°
1020.7 hPa 0.4 mm 12.3°
0
52%
20:00
18°
1019.5 hPa 0.4 mm 12.7°
0
46%
 06:13     20:12    Daglengte: 13:59 Woensdag 31 Aug
02:00
16°
1019.3 hPa 0.4 mm 11.6°
1
47%
08:00
16°
1018.0 hPa 0.4 mm 11.9°
2
56%
14:00
20°
1017.1 hPa 0.7 mm 12.3°
2
58%
20:00
17°
1016.1 hPa 0.4 mm 12.6°
1
52%
 06:15     20:10    Daglengte: 13:55 Donderdag 01 Sep
02:00
15°
1016.1 hPa 0.6 mm 11.7°
1
55%
08:00
15°
1015.5 hPa 0.3 mm 11.6°
1
58%
  CAPE Lifted Index Hail Supercell Tornado SRH 3km CL BTM PRES CL TOP PRES Swiss DWD icon SMHI TS
 05:44     20:50    Daglengte: 15:06 Vandaag
13:00 0 J/kg 1.3 K 0 % 0 % 0 % 0 m²/s² 0 0 3.55 2
14:00 0 J/kg 1.9 K 0 % 0 % 0 % 0 m²/s² 0 0 4.15 3
15:00 0 J/kg 1.9 K 0 % 0 % 0 % 0 m²/s² 0 0 3.67 3
16:00 0 J/kg 1.9 K 0 % 0 % 0 % 0 m²/s² 0 0 3.49 3
17:00 0 J/kg 1.6 K 0 % 0 % 0 % 0 m²/s² 0 0 3.04 3
18:00 2 J/kg 1.0 K 0 % 0 % 0 % 0 m²/s² 0 0 2.83 3
19:00 5 J/kg 0.6 K 0 % 0 % 0 % 0 m²/s² 0 0 2.7 3
20:00 20 J/kg -0.1 K 0 % 0 % 0 % 0 m²/s² 0 0 2.21 3
21:00 10 J/kg 0.1 K 0 % 0 % 0 % 0 m²/s² 0 0 2.41 3
22:00 0 J/kg 0.6 K 0 % 0 % 0 % 0 m²/s² 0 0 2.97 3
23:00 0 J/kg 0.5 K 0 % 0 % 0 % 0 m²/s² 0 0 2.75 3
 05:46     20:47    Daglengte: 15:01 Morgen
00:00 0 J/kg 0.5 K 0 % 0 % 0 % 0 m²/s² 0 0 2.21 3
01:00 0 J/kg 0.5 K 0 % 0 % 0 % 0 m²/s² 0 0 1.97 3
02:00 0 J/kg 0.8 K 0 % 0 % 0 % 0 m²/s² 0 0 2 45
03:00 0 J/kg 0.4 K 0 % 0 % 0 % 0 m²/s² 0 0 1.39 45
04:00 0 J/kg 0.5 K 0 % 0 % 0 % 0 m²/s² 0 0 1.34 45
05:00 0 J/kg 0.6 K 0 % 0 % 0 % 0 m²/s² 0 0 1.44 45
06:00 0 J/kg 0.5 K 0 % 0 % 0 % 0 m²/s² 0 0 1.4 45
07:00 0 J/kg 0.4 K 0 % 0 % 0 % 0 m²/s² 0 0 1.39 45
08:00 0 J/kg 1.0 K 0 % 0 % 0 % 0 m²/s² 0 0 2.11 61
09:00 0 J/kg 1.5 K 0 % 0 % 0 % 0 m²/s² 0 0 2.64 61
10:00 1 J/kg 0.5 K 0 % 0 % 0 % 0 m²/s² 0 0 1.88 61
11:00 0 J/kg 0.2 K 0 % 0 % 0 % 0 m²/s² 0 0 1.34 61
12:00 22 J/kg 0.2 K 0 % 0 % 0 % 0 m²/s² 0 0 0.92 3
13:00 116 J/kg -0.9 K 0 % 0 % 0 % 0 m²/s² 0 0 -0.33 3
14:00 271 J/kg -1.8 K 0 % 0 % 0 % 0 m²/s² 0 0 -1.23 3
15:00 432 J/kg -2.1 K 0 % 0 % 0 % 0 m²/s² 0 0 -1.65 3
16:00 469 J/kg -2.5 K 0 % 0 % 0 % 0 m²/s² 0 0 -2.02 3
17:00 291 J/kg -2.0 K 0 % 0 % 0 % 0 m²/s² 0 0 -1.43 80
18:00 0 J/kg -1.5 K 0 % 0 % 0 % 0 m²/s² 0 0 -1.32 80
19:00 22 J/kg -1.1 K 0 % 0 % 0 % 0 m²/s² 0 0 -0.23 95
20:00 112 J/kg -1.8 K 0 % 0 % 0 % 0 m²/s² 0 0 -0.69 95
21:00 203 J/kg -2.7 K 0 % 0 % 0 % 0 m²/s² 0 0 -1.8 95
22:00 165 J/kg -2.1 K 0 % 0 % 0 % 0 m²/s² 0 0 -1.56 95
23:00 130 J/kg -2.6 K 0 % 0 % 0 % 0 m²/s² 0 0 -1.58 95
 05:48     20:45    Daglengte: 14:57 Vrijdag 19 Aug
00:00 170 J/kg -3.3 K 0 % 0 % 0 % 0 m²/s² 0 0 -2.25 80
01:00 136 J/kg -2.9 K 0 % 0 % 0 % 0 m²/s² 0 0 -2.09 2
02:00 197 J/kg -1.6 K 0 % 0 % 0 % 0 m²/s² 0 0 -0.73 3
03:00 143 J/kg -1.2 K 0 % 0 % 0 % 0 m²/s² 0 0 -0.15 3
04:00 45 J/kg -0.9 K 0 % 0 % 0 % 0 m²/s² 0 0 -0.36 2
05:00 34 J/kg -0.5 K 0 % 0 % 0 % 0 m²/s² 0 0 -0.14 2
06:00 39 J/kg -0.2 K 0 % 0 % 0 % 0 m²/s² 0 0 -0.2 45
07:00 63 J/kg -0.4 K 0 % 0 % 0 % 0 m²/s² 0 0 -0.4 45
08:00 70 J/kg -0.3 K 0 % 0 % 0 % 0 m²/s² 0 0 -0.3 45
09:00 90 J/kg 0.0 K 0 % 0 % 0 % 0 m²/s² 0 0 0.21 2
10:00 169 J/kg -0.5 K 0 % 0 % 0 % 0 m²/s² 0 0 -0.11 3
11:00 135 J/kg -0.5 K 0 % 0 % 0 % 0 m²/s² 0 0 0.85 3
12:00 164 J/kg -0.4 K 0 % 0 % 0 % 0 m²/s² 0 0 1.16 3
13:00 84 J/kg -0.3 K 0 % 0 % 0 % 0 m²/s² 0 0 2.04 3
14:00 87 J/kg -0.3 K 0 % 0 % 0 % 0 m²/s² 0 0 2.82 80
15:00 56 J/kg -0.3 K 0 % 0 % 0 % 0 m²/s² 0 0 3.87 3
16:00 75 J/kg -0.4 K 0 % 0 % 0 % 0 m²/s² 0 0 5 80
17:00 54 J/kg -0.6 K 0 % 0 % 0 % 0 m²/s² 0 0 5.58 80
18:00 6 J/kg 0.1 K 0 % 0 % 0 % 0 m²/s² 0 0 6.46 61
19:00 4 J/kg -0.4 K 0 % 0 % 0 % 0 m²/s² 0 0 5.42 80
20:00 1 J/kg 1.1 K 0 % 0 % 0 % 0 m²/s² 0 0 6.62 95
21:00 0 J/kg 3.6 K 0 % 0 % 0 % 0 m²/s² 0 0 6.99 95
22:00 0 J/kg 6.2 K 0 % 0 % 0 % 0 m²/s² 0 0 8.18 95
23:00 0 J/kg 5.3 K 0 % 0 % 0 % 0 m²/s² 0 0 6.74 95
 05:50     20:42    Daglengte: 14:52 Zaterdag 20 Aug
00:00 0 J/kg 3.1 K 0 % 0 % 0 % 0 m²/s² 0 0 4.21 95
01:00 0 J/kg 1.8 K 0 % 0 % 0 % 0 m²/s² 0 0 2.76 95
02:00 0 J/kg 1.3 K 0 % 0 % 0 % 0 m²/s² 0 0 2.41 95
03:00 5 J/kg 1.8 K 0 % 0 % 0 % 0 m²/s² 0 0 3.03 80
04:00 11 J/kg 2.0 K 0 % 0 % 0 % 0 m²/s² 0 0 3.11 80
05:00 0 J/kg 4.8 K 0 % 0 % 0 % 0 m²/s² 0 0 5.97 80
06:00 0 J/kg 6.0 K 0 % 0 % 0 % 0 m²/s² 0 0 7.32 61
07:00 0 J/kg 7.5 K 0 % 0 % 0 % 0 m²/s² 0 0 9.15 3
08:00 0 J/kg 7.9 K 0 % 0 % 0 % 0 m²/s² 0 0 10.75 3
09:00 0 J/kg 8.0 K 0 % 0 % 0 % 0 m²/s² 0 0 12.92 61
10:00 0 J/kg 7.6 K 0 % 0 % 0 % 0 m²/s² 0 0 14.68 3
11:00 0 J/kg 7.7 K 0 % 0 % 0 % 0 m²/s² 0 0 16.46 3
12:00 0 J/kg 7.9 K 0 % 0 % 0 % 0 m²/s² 0 0 17.44 3
Temp Baro Wind Neerslag
  EWN Forecast EWN WRFDA DWD ICON FMI HIRLAM MET Norway GFS
 05:44     20:50    Daglengte: 15:06 Vandaag
14:00 22.0° 1012.9 hPa 3.6 m/s 0.0 mm 23.4° 1012.4 hPa 3.5 m/s 0.0 mm 22.1° 1013.0 hPa 3.2 m/s -2.0 mm 22.5° 1013.0 hPa 4.4 m/s 0.0 mm 22.6° 1012.3 hPa 3.8 m/s
17:00 21.3° 1012.9 hPa 3.1 m/s 0.0 mm 24.0° 1012.1 hPa 3.8 m/s 0.0 mm 21.2° 1012.8 hPa 3.0 m/s 0.0 mm 22.1° 1013.4 hPa 3.5 m/s 0.0 mm 22.4° 1012.1 hPa 3.4 m/s
20:00 20.1° 1013.3 hPa 2.5 m/s 0.0 mm 20.2° 1012.9 hPa 2.6 m/s 0.0 mm 20.4° 1013.4 hPa 1.8 m/s 0.0 mm 20.4° 1013.5 hPa 2.5 m/s 0.0 mm 19.2° 1012.6 hPa 2.1 m/s
23:00 18.3° 1014.1 hPa 0.9 m/s 0.0 mm 17.7° 1013.5 hPa 1.0 m/s 0.0 mm 18.7° 1014.0 hPa 0.4 m/s 0.0 mm 18.3° 1014.9 hPa 0.6 m/s 0.0 mm 16.6° 1013.9 hPa 1.8 m/s
 05:46     20:47    Daglengte: 15:01 Morgen
02:00 17.4° 1014.5 hPa 0.7 m/s 0.0 mm 16.3° 1013.4 hPa 0.6 m/s 0.0 mm 18.0° 1014.6 hPa 0.6 m/s 0.0 mm 17.6° 1015.2 hPa 0.6 m/s 0.0 mm 15.8° 1013.6 hPa 1.1 m/s
05:00 16.9° 1014.4 hPa 1.0 m/s 0.0 mm 15.2° 1013.4 hPa 1.8 m/s 0.0 mm 17.2° 1014.2 hPa 1.0 m/s 0.0 mm 17.8° 1015.4 hPa 0.7 m/s 0.0 mm 15.1° 1013.8 hPa 0.4 m/s
08:00 17.6° 1014.9 hPa 1.2 m/s 0.0 mm 18.3° 1014.1 hPa 1.4 m/s 0.0 mm 17.6° 1014.9 hPa 1.2 m/s 0.1 mm 18.4° 1015.7 hPa 1.8 m/s 0.0 mm 17.6° 1014.7 hPa 0.3 m/s
11:00 20.7° 1014.9 hPa 1.7 m/s 0.0 mm 23.6° 1013.9 hPa 0.7 m/s 0.0 mm 19.9° 1014.6 hPa 1.9 m/s 0.5 mm 23.5° 1016.2 hPa 2.3 m/s 0.0 mm 18.1° 1014.5 hPa 2.0 m/s
14:00 23.9° 1014.0 hPa 2.2 m/s 0.0 mm 27.3° 1012.4 hPa 0.9 m/s 0.0 mm 23.5° 1013.4 hPa 2.2 m/s 0.0 mm 26.0° 1015.5 hPa 3.0 m/s 0.0 mm 20.2° 1013.4 hPa 2.2 m/s
17:00 23.6° 1012.9 hPa 2.8 m/s 0.0 mm 25.0° 1011.6 hPa 5.0 m/s 0.4 mm 22.2° 1012.9 hPa 2.6 m/s 0.9 mm 25.1° 1014.3 hPa 3.2 m/s 0.0 mm 23.2° 1012.2 hPa 3.7 m/s
20:00 21.4° 1012.7 hPa 1.9 m/s 0.0 mm 21.5° 1010.7 hPa 4.0 m/s 1.9 mm 19.8° 1012.9 hPa 1.0 m/s 2.1 mm 23.8° 1013.7 hPa 1.8 m/s 0.0 mm 18.6° 1012.2 hPa 2.6 m/s
23:00 18.9° 1012.7 hPa 1.3 m/s 0.0 mm 20.5° 1010.4 hPa 2.4 m/s 2.6 mm 18.6° 1012.9 hPa 1.2 m/s 5.4 mm 19.4° 1014.1 hPa 2.0 m/s 0.0 mm 17.0° 1012.8 hPa 1.8 m/s
 05:48     20:45    Daglengte: 14:57 Vrijdag 19 Aug
02:00 18.2° 1012.6 hPa 1.3 m/s 0.0 mm 19.8° 1010.5 hPa 3.3 m/s 3.8 mm 17.9° 1012.8 hPa 0.6 m/s 1.3 mm 19.2° 1013.7 hPa 3.9 m/s 0.0 mm 16.7° 1012.6 hPa 1.6 m/s
05:00 17.4° 1011.4 hPa 1.4 m/s 0.0 mm 18.7° 1009.5 hPa 2.7 m/s 3.8 mm 17.4° 1012.6 hPa 0.8 m/s 0.0 mm 16.4° 1012.8 hPa 2.3 m/s
08:00 18.2° 1011.9 hPa 1.1 m/s 0.0 mm 18.8° 1009.2 hPa 1.2 m/s 14.9 mm 17.9° 1013.4 hPa 0.6 m/s 0.0 mm 16.7° 1013.3 hPa 1.5 m/s
11:00 21.7° 1011.8 hPa 1.0 m/s 0.0 mm 20.0° 1008.9 hPa 0.9 m/s 22.0 mm 21.8° 1013.0 hPa 0.9 m/s 0.0 mm 18.1° 1013.3 hPa 2.1 m/s
14:00 22.4° 1011.3 hPa 1.7 m/s 3.8 mm 22.3° 1008.3 hPa 3.6 m/s 29.5 mm 22.7° 1012.8 hPa 1.5 m/s 0.7 mm 17.1° 1013.1 hPa 1.9 m/s
17:00 21.6° 1010.6 hPa 1.9 m/s 5.1 mm 22.1° 1008.6 hPa 3.5 m/s 30.6 mm 21.7° 1012.1 hPa 0.7 m/s 1.7 mm 16.8° 1012.5 hPa 1.4 m/s
20:00 19.2° 1010.4 hPa 2.2 m/s 9.6 mm 18.9° 1010.3 hPa 2.7 m/s 30.7 mm 20.5° 1011.3 hPa 1.4 m/s 1.6 mm 16.8° 1012.7 hPa 1.4 m/s
23:00 18.2° 1010.1 hPa 1.3 m/s 10.5 mm 17.2° 1010.2 hPa 2.0 m/s 30.7 mm 19.6° 1010.5 hPa 0.6 m/s 6.2 mm 15.2° 1013.0 hPa 0.3 m/s
 05:50     20:42    Daglengte: 14:52 Zaterdag 20 Aug
02:00 18.7° 1009.3 hPa 1.2 m/s 13.3 mm 16.7° 1010.0 hPa 1.9 m/s 30.7 mm 19.1° 1009.2 hPa 1.0 m/s 4.6 mm 14.5° 1012.9 hPa 0.9 m/s
05:00 18.0° 1008.6 hPa 2.3 m/s 11.4 mm 16.3° 1010.4 hPa 3.4 m/s 30.9 mm 18.4° 1008.2 hPa 2.0 m/s 1.7 mm 13.7° 1012.4 hPa 1.1 m/s
08:00 18.0° 1008.6 hPa 2.7 m/s 7.2 mm 16.9° 1011.1 hPa 4.9 m/s 31.0 mm 18.3° 1008.0 hPa 2.2 m/s 0.6 mm 15.8° 1012.6 hPa 0.4 m/s
11:00 19.0° 1008.8 hPa 3.3 m/s 3.5 mm 18.0° 1011.7 hPa 6.0 m/s 31.0 mm 19.2° 1008.1 hPa 2.6 m/s 0.2 mm 17.8° 1012.8 hPa 3.2 m/s
14:00 18.8° 1009.6 hPa 4.7 m/s 10.4 mm 18.7° 1012.5 hPa 5.1 m/s 31.0 mm 18.8° 1008.9 hPa 4.6 m/s 0.1 mm 17.6° 1013.3 hPa 3.4 m/s
17:00 18.3° 1012.9 hPa 3.8 m/s 10.7 mm 18.3° 1012.9 hPa 3.8 m/s 10.7 mm
20:00 16.1° 1013.1 hPa 2.7 m/s 10.7 mm 16.1° 1013.1 hPa 2.7 m/s 10.7 mm
23:00 15.1° 1012.7 hPa 3.0 m/s 10.7 mm 15.1° 1012.7 hPa 3.0 m/s 10.7 mm
 05:52     20:39    Daglengte: 14:47 Zondag 21 Aug
02:00 14.8° 1012.9 hPa 2.8 m/s 10.7 mm 14.8° 1012.9 hPa 2.8 m/s 10.7 mm
05:00 15.2° 1012.0 hPa 4.2 m/s 10.7 mm 15.2° 1012.0 hPa 4.2 m/s 10.7 mm
08:00 17.1° 1011.5 hPa 5.2 m/s 10.9 mm 17.1° 1011.5 hPa 5.2 m/s 10.9 mm
11:00 18.7° 1011.9 hPa 5.3 m/s 11.2 mm 18.7° 1011.9 hPa 5.3 m/s 11.2 mm
14:00 19.9° 1011.6 hPa 5.1 m/s 11.4 mm 19.9° 1011.6 hPa 5.1 m/s 11.4 mm
17:00 20.2° 1010.7 hPa 4.3 m/s 11.7 mm 20.2° 1010.7 hPa 4.3 m/s 11.7 mm
20:00 16.6° 1011.2 hPa 3.0 m/s 11.8 mm 16.6° 1011.2 hPa 3.0 m/s 11.8 mm
23:00 15.4° 1010.7 hPa 1.5 m/s 11.8 mm 15.4° 1010.7 hPa 1.5 m/s 11.8 mm
 05:54     20:37    Daglengte: 14:43 Maandag 22 Aug
02:00 14.8° 1010.6 hPa 3.7 m/s 12.1 mm 14.8° 1010.6 hPa 3.7 m/s 12.1 mm
05:00 14.2° 1010.8 hPa 4.4 m/s 12.2 mm 14.2° 1010.8 hPa 4.4 m/s 12.2 mm
08:00 15.5° 1011.7 hPa 5.2 m/s 12.4 mm 15.5° 1011.7 hPa 5.2 m/s 12.4 mm
11:00 16.6° 1012.4 hPa 5.8 m/s 13.5 mm 16.6° 1012.4 hPa 5.8 m/s 13.5 mm
14:00 17.5° 1013.5 hPa 5.2 m/s 15.7 mm 17.5° 1013.5 hPa 5.2 m/s 15.7 mm
17:00 18.2° 1014.4 hPa 4.9 m/s 16.3 mm 18.2° 1014.4 hPa 4.9 m/s 16.3 mm
20:00 16.0° 1015.4 hPa 4.4 m/s 16.3 mm 16.0° 1015.4 hPa 4.4 m/s 16.3 mm
23:00 14.0° 1017.0 hPa 3.4 m/s 16.3 mm 14.0° 1017.0 hPa 3.4 m/s 16.3 mm
 05:56     20:34    Daglengte: 14:38 Dinsdag 23 Aug
02:00 13.2° 1018.5 hPa 2.9 m/s 16.3 mm 13.2° 1018.5 hPa 2.9 m/s 16.3 mm
05:00 12.6° 1019.8 hPa 2.0 m/s 16.3 mm 12.6° 1019.8 hPa 2.0 m/s 16.3 mm
08:00 15.1° 1021.4 hPa 1.2 m/s 16.3 mm 15.1° 1021.4 hPa 1.2 m/s 16.3 mm
11:00 18.5° 1022.6 hPa 1.8 m/s 16.3 mm 18.5° 1022.6 hPa 1.8 m/s 16.3 mm
14:00 21.1° 1022.9 hPa 1.3 m/s 16.3 mm 21.1° 1022.9 hPa 1.3 m/s 16.3 mm
17:00 21.1° 1022.6 hPa 1.8 m/s 16.3 mm 21.1° 1022.6 hPa 1.8 m/s 16.3 mm
20:00 17.4° 1022.6 hPa 1.3 m/s 16.3 mm 17.4° 1022.6 hPa 1.3 m/s 16.3 mm
23:00 15.4° 1023.0 hPa 2.5 m/s 16.3 mm 15.4° 1023.0 hPa 2.5 m/s 16.3 mm
 05:58     20:31    Daglengte: 14:33 Woensdag 24 Aug
02:00 13.4° 1023.5 hPa 3.5 m/s 16.3 mm 13.4° 1023.5 hPa 3.5 m/s 16.3 mm
05:00 13.2° 1023.2 hPa 4.5 m/s 16.3 mm 13.2° 1023.2 hPa 4.5 m/s 16.3 mm
08:00 14.8° 1022.6 hPa 4.9 m/s 16.3 mm 14.8° 1022.6 hPa 4.9 m/s 16.3 mm
11:00 21.3° 1021.8 hPa 4.8 m/s 16.3 mm 21.3° 1021.8 hPa 4.8 m/s 16.3 mm
14:00 24.7° 1020.5 hPa 3.2 m/s 16.3 mm 24.7° 1020.5 hPa 3.2 m/s 16.3 mm
20:00 19.0° 1019.6 hPa 1.2 m/s 16.3 mm 19.0° 1019.6 hPa 1.2 m/s 16.3 mm
 06:00     20:29    Daglengte: 14:29 Donderdag 25 Aug
02:00 16.0° 1019.7 hPa 2.8 m/s 16.3 mm 16.0° 1019.7 hPa 2.8 m/s 16.3 mm
08:00 17.6° 1019.8 hPa 2.8 m/s 16.3 mm 17.6° 1019.8 hPa 2.8 m/s 16.3 mm
14:00 24.6° 1018.4 hPa 2.1 m/s 16.3 mm 24.6° 1018.4 hPa 2.1 m/s 16.3 mm
20:00 20.2° 1018.5 hPa 2.1 m/s 16.3 mm 20.2° 1018.5 hPa 2.1 m/s 16.3 mm
 06:03     20:26    Daglengte: 14:23 Vrijdag 26 Aug
02:00 20.1° 1018.0 hPa 1.7 m/s 16.3 mm 20.1° 1018.1 hPa 1.7 m/s 16.3 mm
08:00 19.8° 1018.8 hPa 1.2 m/s 16.4 mm 19.8° 1018.8 hPa 1.2 m/s 16.4 mm
14:00 23.8° 1020.5 hPa 3.7 m/s 16.4 mm 23.8° 1020.5 hPa 3.7 m/s 16.4 mm
20:00 19.4° 1021.5 hPa 1.3 m/s 16.4 mm 19.4° 1021.5 hPa 1.3 m/s 16.4 mm
 06:05     20:23    Daglengte: 14:18 Zaterdag 27 Aug
02:00 17.5° 1023.0 hPa 1.8 m/s 16.4 mm 17.5° 1023.0 hPa 1.8 m/s 16.4 mm
08:00 16.5° 1022.1 hPa 1.2 m/s 0.3 mm
14:00 21.6° 1022.1 hPa 1.0 m/s 0.2 mm
20:00 18.5° 1021.9 hPa 1.0 m/s 0.2 mm
 06:07     20:21    Daglengte: 14:14 Zondag 28 Aug
02:00 15.7° 1022.8 hPa 0.8 m/s 0.6 mm
08:00 15.9° 1023.0 hPa 0.9 m/s 0.9 mm
14:00 21.2° 1023.0 hPa 1.2 m/s 0.2 mm
20:00 18.1° 1022.5 hPa 1.1 m/s 0.3 mm
 06:09     20:18    Daglengte: 14:09 Maandag 29 Aug
02:00 15.7° 1023.2 hPa 1.1 m/s 0.3 mm
08:00 15.9° 1023.0 hPa 1.3 m/s 0.2 mm
14:00 21.1° 1022.5 hPa 1.1 m/s 0.1 mm
20:00 18.0° 1021.6 hPa 0.8 m/s 0.2 mm
 06:11     20:15    Daglengte: 14:04 Dinsdag 30 Aug
02:00 15.5° 1021.8 hPa 1.5 m/s 0.1 mm
08:00 15.7° 1021.4 hPa 2.0 m/s 0.3 mm
14:00 21.1° 1020.7 hPa 0.5 m/s 0.4 mm
20:00 18.0° 1019.5 hPa 0.4 m/s 0.4 mm
 06:13     20:12    Daglengte: 13:59 Woensdag 31 Aug
02:00 15.6° 1019.3 hPa 1.4 m/s 0.4 mm
08:00 15.7° 1018.0 hPa 1.7 m/s 0.4 mm
14:00 19.9° 1017.1 hPa 1.9 m/s 0.7 mm
20:00 17.2° 1016.1 hPa 0.7 m/s 0.4 mm
 06:15     20:10    Daglengte: 13:55 Donderdag 01 Sep
02:00 15.3° 1016.1 hPa 0.8 m/s 0.6 mm
08:00 15.2° 1015.5 hPa 0.8 m/s 0.3 mm
FMI Hirlam - 7.5 km EWN WRFDA - 12 km DWD ICON - 7 km GFS - 25 km Basiskaart






























































Updatetijd (Europe/Amsterdam) Resolutie Lengte Stap
FMI Hirlam 07:15, 13:15, 19:15, 01:15 7.5 km 49h 1h
EWN WRFDA 10:15, 16:15, 22:15, 04:15 12 km 73h 1h
DWD ICON 11:45, 17:45, 23:45, 05:45 7 km 75h 1h
GFS 08:15, 14:15, 20:15, 02:15 25 km 237h 3h
30+ mm
25-30 mm
20-25 mm
15-20 mm
10-15 mm
6-10 mm
4-6 mm
2-4 mm
1-2 mm
0.5-1 mm
0.2-0.5 mm
0.1-0.2 mm
30+ mm
25-30 mm
20-25 mm
15-20 mm
10-15 mm
6-10 mm
4-6 mm
2-4 mm
1-2 mm
0.5-1 mm
0.2-0.5 mm
0.1-0.2 mm
Sneeuwval
Natte sneeuw
Hagel
Vorst
30+ mm
25-30 mm
20-25 mm
15-20 mm
10-15 mm
6-10 mm
4-6 mm
2-4 mm
1-2 mm
0.5-1 mm
0.2-0.5 mm
0.1-0.2 mm
Sneeuwval
Natte sneeuw
Hagel
Vorst
Onweer
50 mm
40 mm
30 mm
26 mm
22 mm
18 mm
14 mm
10 mm
9 mm
8 mm
7 mm
6 mm
5 mm
4.5 mm
4 mm
3.5 mm
3 mm
2.5 mm
2 mm
1.5 mm
1 mm
0.8 mm
0.6 mm
0.4 mm
0.2 mm
0.05 mm
35°
30°
25°
20°
15°
10°
-5°
-10°
-15°
-20°
-25°
-30°
-35°
33> m/s
29 m/s
25 m/s
21 m/s
17 m/s
14 m/s
11 m/s
8 m/s
5 m/s
3 m/s
0 m/s
2600 J/kg
2400 J/kg
2200 J/kg
2000 J/kg
1800 J/kg
1600 J/kg
1400 J/kg
1200 J/kg
1000 J/kg
800 J/kg
600 J/kg
400 J/kg
200 J/kg
70 dBZ
65 dBZ
60 dBZ
55 dBZ
50 dBZ
45 dBZ
40 dBZ
35 dBZ
30 dBZ
25 dBZ
20 dBZ
15 dBZ
10 dBZ
5 dBZ
-1 K
-2 K
-3 K
-4 K
-5 K
-6 K
-7 K
-8 K
-9 K
950 m²/s²
900 m²/s²
850 m²/s²
800 m²/s²
750 m²/s²
700 m²/s²
650 m²/s²
600 m²/s²
550 m²/s²
500 m²/s²
450 m²/s²
400 m²/s²
350 m²/s²
300 m²/s²
250 m²/s²
200 m²/s²
150 m²/s²
100 m²/s²
46 m/s
44 m/s
42 m/s
40 m/s
38 m/s
36 m/s
34 m/s
32 m/s
30 m/s
28 m/s
26 m/s
24 m/s
22 m/s
20 m/s
16 m/s
12 m/s
8 m/s
4 m/s
30 m/s
28 m/s
26 m/s
24 m/s
22 m/s
20 m/s
18 m/s
16 m/s
14 m/s
12 m/s
10 m/s
8 m/s
6 m/s
4 m/s
2 m/s
3.0
2.8
2.6
2.4
2.2
2.0
1.8
1.6
1.4
1.2
1.0
0.8
0.6
0.4
0.2
15
14
13
12
11
10
9
8
7
6
5
4
3
2
1
90%
80%
70%
60%
50%
40%
30%
20%
10%
42
40
38
36
34
32
30
28
26
24
22
20
18
16
14
12
90+ cm
80-90 cm
70-80 cm
60-70 cm
50-60 cm
40-50 cm
30-40 cm
20-30 cm
10-20 cm
1-10 cm
Sneeuwval
Natte sneeuw
Regen
>120 mm
115 mm
110 mm
105 mm
100 mm
95 mm
90 mm
85 mm
80 mm
75 mm
70 mm
65 mm
60 mm
55 mm
50 mm
45 mm
45 mm
40 mm
35 mm
30 mm
25 mm
20 mm
15 mm
10 mm
5 mm
0.1 mm
960 hPa
880 hPa
800 hPa
720 hPa
640 hPa
560 hPa
584 gpdm
568 gpdm
552 gpdm
536 gpdm
520 gpdm
504 gpdm
488 gpdm
Extreem zwaar Noodweer Kans op onweer
15% 15% 5% 50% 15%

Dag




Kaart






35°
30°
25°
20°
15°
10°
-5°
-10°
-15°
-20°
-25°
-30°
-35°
33> m/s
29 m/s
25 m/s
21 m/s
17 m/s
14 m/s
11 m/s
8 m/s
5 m/s
3 m/s
0 m/s
Extreem zwaar Noodweer Kans op onweer
15% 15% 5% 50%